{"data":{"norad_id":60400,"epoch":"2026-09-21T01:51:20.905920Z","epoch_age_seconds":135715,"freshness":"FRESH","line1":"1 60400U 24141C   26264.07732530  .00000512  00000+0  90873-5 0  9998","line2":"2 60400  53.1611 202.8592 0001425  60.2974 299.8186 15.69702868122388","mean_motion":15.69702868,"eccentricity":0.0001425,"inclination_deg":53.1611,"raan_deg":202.8592,"arg_perigee_deg":60.2974,"mean_anomaly_deg":299.8186,"bstar":9.0873e-6,"rev_number":12238,"period_min":91.737107025532,"perigee_km":358.78701105834,"apogee_km":360.70730804381,"semimajor_km":6737.8841595511,"source":"CELESTRAK","updated_at":"2026-09-22T09:00:49.228856Z"}}